Home   Weather   La Plata   Past weeks
Flag for Argentina

Past Weather in La Plata, Buenos Aires, Argentina — Yesterday and Last 2 Weeks

Now
68 °F

Overcast.


Feels Like: 68 °F
Forecast: 73 / 55 °F
Wind: 16 mph from Northeast

Location: Ezeiza Aerodrome

Current Time: Jul 21, 2019 at 1:55:30 am

Latest Report: Jul 21, 2019 at 12:00 am


Visibility: 6 mi

Pressure: 29.63 "Hg

Humidity: 73%

Dew Point: 59 °F

Location of La PlataLocation

Past Weather in La Plata — Graph

°F

La Plata Temperature Yesterday

Maximum temperature yesterday: 67 °F (at 11:00 pm)
Minimum temperature yesterday: 52 °F (at 3:00 am)
Average temperature yesterday: 61 °F

High & Low Weather Summary for the Past Weeks

 TemperatureHumidityPressure
High68 °F (Jul 21, 12:00 am)100% (Jul 6, 3:00 am)30.46 "Hg (Jul 6, 3:00 am)
Low28 °F (Jul 6, 6:00 am)33% (Jul 6, 4:00 pm)29.63 "Hg (Jul 21, 12:00 am)
Average51 °F76%30.12 "Hg
* Reported Jul 6 12:00 am — Jul 21 12:00 am, La Plata. Weather by CustomWeather, © 2019

Note: Actual official high and low records may vary slightly from our data, if they occured in-between our weather recording intervals... More about our weather records

Advertising

La Plata Weather History for the Previous 24 Hours

Scroll right to see more
 ConditionsComfort  
Time TempWeatherWind HumidityBarometerVisibility
12:00 am
Sun, Jul 21
68 °FOvercast.16 mph73%29.63 "Hg6 mi
11:00 pm
Sat, Jul 20
67 °FOvercast.9 mph77%29.65 "Hg6 mi
10:00 pm66 °FOvercast.12 mph80%29.67 "Hg6 mi
9:00 pm65 °FOvercast.13 mph84%29.69 "Hg6 mi
8:00 pm65 °FOvercast.12 mph83%29.72 "Hg6 mi
7:00 pm65 °FOvercast.9 mph84%29.73 "Hg6 mi
6:00 pm65 °FOvercast.10 mph80%29.74 "Hg6 mi
5:00 pm65 °FOvercast.8 mph76%29.77 "Hg6 mi
4:00 pm66 °FOvercast.9 mph77%29.78 "Hg6 mi
3:00 pm67 °FOvercast.9 mph75%29.80 "Hg6 mi
2:00 pm67 °FOvercast.9 mph75%29.84 "Hg6 mi
1:00 pm65 °FOvercast.9 mph73%29.88 "Hg6 mi
12:00 pm64 °FOvercast.9 mph80%29.93 "Hg5 mi
11:00 am62 °FOvercast.6 mph85%29.93 "Hg4 mi
10:00 am60 °FFog.2 mph93%29.95 "Hg2 mi
9:00 am58 °FFog.2 mph92%29.95 "Hg3 mi
8:00 am58 °FFog.5 mph91%29.94 "Hg2 mi
7:00 am57 °FFog.2 mph92%29.93 "Hg4 mi
6:00 am55 °FFog.3 mph91%29.94 "Hg2 mi
5:00 am52 °FFog.3 mph96%29.94 "Hg2 mi
4:00 am55 °FFog.5 mph92%29.96 "Hg1 mi
3:00 am52 °FFog.1 mph94%29.96 "Hg0 mi
2:00 am52 °FFog.1 mph96%29.96 "Hg1 mi
1:00 am54 °FFog.2 mph94%29.97 "Hg1 mi
Weather by CustomWeather, © 2019

See weather overview